Location: Lewisville
(33.0462°N, 96.9942°W)
Time: 18:53:56
(UTC-06:00)

N. Korean satellite - Pass Details

Date: 03 January 2020
Orbit: 456 x 505 km, 97.2° (Epoch: 28 February)

Event Time Altitude Azimuth Distance (km) Brightness Sun altitude
Rises 06:04:04 0° 14° (NNE) 2,478 10.1 -17.8°
Reaches altitude 10° 06:06:07 10° 17° (NNE) 1,603 9.2 -17.4°
Maximum altitude 06:09:32 66° 101° (E) 503 6.8 -16.8°
Drops below altitude 10° 06:12:57 10° 184° (S) 1,606 9.4 -16.1°
Sets 06:15:00 0° 187° (S) 2,484 10.3 -15.7°
